Location: ???
(35.5616°N, 139.7977°E)
Time: 03:19:51
(UTC+00:00)

Cosmos 1025 Rocket - Pass Details

Date: 17 November 2025
Orbit: 586 x 610 km, 82.5° (Epoch: 09 December)

Event Time Altitude Azimuth Distance (km) Brightness Sun altitude
Rises 20:26:51 0° 201° (SSW) 2,855 6.4 -10.8°
Reaches altitude 10° 20:29:08 10° 208° (SSW) 1,956 5.5 -10.4°
Maximum altitude 20:33:16 43° 280° (W) 860 3.3 -9.6°
Drops below altitude 10° 20:37:26 10° 352° (N) 1,970 5.4 -8.8°
Sets 20:39:45 0° 360° (N) 2,877 6.3 -8.3°
